Starlink 32488

operational
NORAD ID: 62125 Int'l Des: 2024-222 Owner: SPXS Country: US Constellation: starlink
LEOCIRCULAR

Starlink 32488について

説明を読み込み中...

リアルタイム位置

3D地球を読み込み中...

次回通過

高度履歴

Altitude vs Time

uPlot chart will show altitude changes over time

軌道要素

1 62125U 24222M 25258.70701831 .00035910 00000-0 13070-2 0 9998
2 62125 42.9998 44.7389 0001562 270.0239 90.0434 15.27608249 45880
Epoch: Sep 15, 2025 • Age: 15 hours

現在のステータス

高度 484.9 km
速度 7.63 km/s
衛星直下点 33.43°N, 66.4°E
打ち上げ日 Nov 27, 2024
運用期間 0.8 years
タイプ internet

技術仕様

分類 Payload
質量 730.00 kg
乾燥質量 700.00 kg
総質量 730.00 kg
長さ 0.30 m
直径 4.10 m
スパン 29.00 m
形状 Box + pan
製造者 SPXS
バスタイプ Starlink V2M
フェーズステータス In Orbit
所有者/国 SPXS/US

大規模コンステレーション

Loading constellations...